アトラス彗星

C/2019 K1 ( ATLAS )

English version
Home page
Updated on June 14, 2021

---------------------------------------------------------------------

・ プロフィール

発見日 2019年5月16日
発見光度 17.1等
発見者 Asteroid Terrestrial-Impact Last Alert System (ATLAS) search program

・ 写真集

・ 軌道要素

Epoch 2020 Feb. 1.0 TT = JDT 2458880.5
T 2020 Feb. 12.96123 TT                                 Rudenko
q   2.0126035            (2000.0)            P               Q
z  +0.0001005      Peri.  265.70586     +0.02610756     +0.28887374
 +/-0.0000015      Node    73.37491     +0.31732225     +0.90543066
e   0.9997978      Incl.   87.14873     -0.94795833     +0.31104224
From 300 observations 2019 May 14-2020 Nov. 10, mean residual 0".9.

・ 星図

・ 光度変化

        m1 = 10.0 + 5 logΔ + 10.0 log r(t + 140)

---------------------------------------------------------------------

軌道要素はM.P.E.C. 2021-F20に掲載されたものです。
星図はステラナビゲータ Ver.10 (アストロアーツ) で作成したものです。
光度グラフはComet for Windowsで作成したものです。

---------------------------------------------------------------------

Copyright(C) Seiichi Yoshida (comet@aerith.net). All rights reserved.